• en Suisse
  • Liste des pays
  • À 7 jours
  • Température de l'eau
  • Carte satellitaire
  • Carte météo
  • Widgets météo
  • user-avatar
    Se connecter

    Météo par heure à Kinshasa

    Ce jour, 17 Décembre, Dimanche

    Heure Température Précipitation Vent Pression Humidité
    00:00 +24°C° 0 mm 0 m/s 706 mmHg 55%
    01:00 +25°C° 0 mm 1 m/s 707 mmHg 58%
    02:00 +25°C° 0 mm 1 m/s 706 mmHg 62%
    03:00 +24°C° 0 mm 1 m/s 706 mmHg 66%
    04:00 +24°C° 0 mm 1 m/s 706 mmHg 70%
    05:00 +24°C° 0 mm 1 m/s 707 mmHg 72%
    06:00 +25°C° 0 mm 1 m/s 707 mmHg 73%
    07:00 +25°C° 0 mm 1 m/s 707 mmHg 71%
    08:00 +27°C° 0 mm 2 m/s 708 mmHg 63%
    09:00 +30°C° 0 mm 2 m/s 708 mmHg 54%
    10:00 +32°C° 0 mm 2 m/s 708 mmHg 46%
    11:00 +35°C° 0 mm 2 m/s 708 mmHg 38%
    12:00 +36°C° 0 mm 1 m/s 707 mmHg 30%
    13:00 +39°C° 0 mm 1 m/s 707 mmHg 22%
    14:00 +37°C° 0 mm 1 m/s 706 mmHg 22%
    15:00 +37°C° 0 mm 1 m/s 706 mmHg 22%
    16:00 +36°C° 0 mm 1 m/s 705 mmHg 22%
    17:00 +34°C° 0 mm 1 m/s 705 mmHg 26%
    18:00 +31°C° 0 mm 1 m/s 705 mmHg 29%
    19:00 +29°C° 0 mm 1 m/s 705 mmHg 33%
    20:00 +29°C° 0 mm 1 m/s 706 mmHg 35%
    21:00 +28°C° 0 mm 1 m/s 706 mmHg 37%
    22:00 +27°C° 0 mm 1 m/s 707 mmHg 39%
    23:00 +26°C° 0 mm 1 m/s 706 mmHg 41%

    Demain, 18 Décembre, Lundi

    Heure Température Précipitation Vent Pression Humidité
    00:00 +26°C° 0 mm 1 m/s 706 mmHg 43%
    01:00 +25°C° 0 mm 1 m/s 706 mmHg 45%
    02:00 +25°C° 0 mm 1 m/s 706 mmHg 46%
    03:00 +25°C° 0 mm 1 m/s 706 mmHg 47%
    04:00 +24°C° 0 mm 1 m/s 706 mmHg 48%
    05:00 +24°C° 0 mm 1 m/s 707 mmHg 51%
    06:00 +25°C° 0 mm 1 m/s 707 mmHg 54%
    07:00 +25°C° 0 mm 2 m/s 707 mmHg 56%
    08:00 +27°C° 0 mm 2 m/s 708 mmHg 50%
    09:00 +30°C° 0 mm 2 m/s 708 mmHg 45%
    10:00 +34°C° 0 mm 2 m/s 708 mmHg 39%
    11:00 +36°C° 0 mm 2 m/s 708 mmHg 32%
    12:00 +38°C° 0 mm 2 m/s 707 mmHg 26%
    13:00 +40°C° 0 mm 1 m/s 707 mmHg 19%
    14:00 +39°C° 0 mm 1 m/s 706 mmHg 18%
    15:00 +39°C° 0 mm 1 m/s 705 mmHg 17%
    16:00 +37°C° 0 mm 1 m/s 704 mmHg 17%
    17:00 +35°C° 0 mm 1 m/s 704 mmHg 20%
    18:00 +32°C° 0 mm 1 m/s 704 mmHg 23%
    19:00 +28°C° 0 mm 0 m/s 704 mmHg 25%
    20:00 +29°C° 0 mm 1 m/s 705 mmHg 27%
    21:00 +28°C° 0 mm 1 m/s 705 mmHg 28%
    22:00 +27°C° 0 mm 1 m/s 706 mmHg 29%
    23:00 +26°C° 0 mm 1 m/s 706 mmHg 34%

    Après-demain, 19 Décembre, Mardi

    Heure Température Précipitation Vent Pression Humidité
    00:00 +24°C° 0 mm 0 m/s 706 mmHg 38%
    01:00 +23°C° 0 mm 0 m/s 705 mmHg 43%
    02:00 +25°C° 0 mm 1 m/s 705 mmHg 46%
    03:00 +24°C° 0 mm 1 m/s 705 mmHg 48%
    04:00 +24°C° 0 mm 1 m/s 705 mmHg 51%
    05:00 +24°C° 0 mm 2 m/s 706 mmHg 55%
    06:00 +24°C° 0 mm 2 m/s 706 mmHg 59%
    07:00 +25°C° 0 mm 3 m/s 707 mmHg 63%
    08:00 +27°C° 0 mm 2 m/s 707 mmHg 57%
    09:00 +29°C° 0 mm 2 m/s 707 mmHg 51%
    10:00 +32°C° 0 mm 2 m/s 708 mmHg 44%
    11:00 +35°C° 0 mm 2 m/s 707 mmHg 36%
    12:00 +37°C° 0 mm 1 m/s 707 mmHg 28%
    13:00 +40°C° 0 mm 1 m/s 706 mmHg 20%
    14:00 +40°C° 0 mm 1 m/s 705 mmHg 19%
    15:00 +39°C° 0 mm 1 m/s 705 mmHg 19%
    16:00 +39°C° 0 mm 1 m/s 704 mmHg 18%
    17:00 +35°C° 0 mm 1 m/s 704 mmHg 21%
    18:00 +32°C° 0 mm 1 m/s 704 mmHg 25%
    19:00 +30°C° 0 mm 1 m/s 704 mmHg 29%
    20:00 +29°C° 0 mm 1 m/s 705 mmHg 35%
    21:00 +28°C° 0 mm 1 m/s 705 mmHg 40%
    22:00 +27°C° 0 mm 1 m/s 706 mmHg 46%
    23:00 +27°C° 0 mm 1 m/s 706 mmHg 52%

    20 Décembre, Mercredi

    Heure Température Précipitation Vent Pression Humidité
    00:00 +26°C° 0 mm 1 m/s 706 mmHg 58%
    01:00 +25°C° 0 mm 1 m/s 706 mmHg 64%
    02:00 +25°C° 0 mm 1 m/s 706 mmHg 66%
    03:00 +25°C° 0 mm 2 m/s 706 mmHg 69%
    04:00 +24°C° 0 mm 2 m/s 705 mmHg 72%
    05:00 +25°C° 0 mm 2 m/s 706 mmHg 72%
    06:00 +25°C° 0 mm 2 m/s 706 mmHg 72%
    07:00 +25°C° 0 mm 2 m/s 707 mmHg 72%
    08:00 +27°C° 0 mm 2 m/s 707 mmHg 63%
    09:00 +29°C° 0 mm 2 m/s 708 mmHg 55%
    10:00 +32°C° 0 mm 2 m/s 708 mmHg 47%
    11:00 +34°C° 0 mm 1 m/s 708 mmHg 39%
    12:00 +36°C° 0 mm 1 m/s 707 mmHg 32%
    13:00 +39°C° 0 mm 1 m/s 706 mmHg 24%
    14:00 +39°C° 0 mm 1 m/s 705 mmHg 23%
    15:00 +37°C° 0 mm 1 m/s 705 mmHg 23%
    16:00 +36°C° 0 mm 1 m/s 704 mmHg 23%
    17:00 +34°C° 0 mm 1 m/s 704 mmHg 28%
    18:00 +32°C° 0 mm 1 m/s 705 mmHg 32%
    19:00 +30°C° 0 mm 1 m/s 705 mmHg 37%
    20:00 +29°C° 0 mm 1 m/s 705 mmHg 43%
    21:00 +28°C° 0 mm 1 m/s 706 mmHg 50%
    22:00 +27°C° 0 mm 1 m/s 706 mmHg 56%
    23:00 +26°C° 0 mm 1 m/s 706 mmHg 61%

    21 Décembre, Jeudi

    Heure Température Précipitation Vent Pression Humidité
    00:00 +26°C° 0 mm 1 m/s 706 mmHg 65%
    01:00 +25°C° 0 mm 1 m/s 706 mmHg 70%
    02:00 +25°C° 0 mm 1 m/s 706 mmHg 73%
    03:00 +24°C° 0 mm 1 m/s 706 mmHg 76%
    04:00 +24°C° 0 mm 2 m/s 706 mmHg 79%
    05:00 +24°C° 0 mm 2 m/s 707 mmHg 79%
    06:00 +25°C° 0 mm 2 m/s 707 mmHg 78%
    07:00 +25°C° 0 mm 2 m/s 708 mmHg 78%
    08:00 +27°C° 0,1 mm 2 m/s 708 mmHg 69%
    09:00 +30°C° 0,1 mm 2 m/s 709 mmHg 60%
    10:00 +32°C° 0,1 mm 2 m/s 709 mmHg 51%
    11:00 +34°C° 0,3 mm 1 m/s 708 mmHg 44%
    12:00 +36°C° 0,3 mm 1 m/s 708 mmHg 38%
    13:00 +39°C° 0,3 mm 1 m/s 707 mmHg 32%
    14:00 +37°C° 0 mm 1 m/s 706 mmHg 33%
    15:00 +36°C° 0 mm 1 m/s 706 mmHg 33%
    16:00 +35°C° 0 mm 1 m/s 705 mmHg 34%
    17:00 +33°C° 0 mm 1 m/s 705 mmHg 39%
    18:00 +31°C° 0 mm 1 m/s 705 mmHg 43%
    19:00 +29°C° 0 mm 1 m/s 705 mmHg 48%
    20:00 +29°C° 0 mm 1 m/s 706 mmHg 53%
    21:00 +28°C° 0 mm 1 m/s 706 mmHg 57%
    22:00 +27°C° 0 mm 1 m/s 707 mmHg 62%
    23:00 +26°C° 0 mm 1 m/s 707 mmHg 65%

    22 Décembre, Vendredi

    Heure Température Précipitation Vent Pression Humidité
    00:00 +26°C° 0 mm 1 m/s 707 mmHg 69%
    01:00 +25°C° 0 mm 1 m/s 707 mmHg 73%
    02:00 +25°C° 0,9 mm 1 m/s 707 mmHg 77%
    03:00 +24°C° 0,9 mm 1 m/s 707 mmHg 82%
    04:00 +24°C° 0,9 mm 1 m/s 707 mmHg 86%
    05:00 +24°C° 0,7 mm 1 m/s 707 mmHg 87%
    06:00 +24°C° 0,7 mm 1 m/s 708 mmHg 87%
    07:00 +24°C° 0,7 mm 2 m/s 708 mmHg 88%
    08:00 +25°C° 0 mm 2 m/s 709 mmHg 81%
    09:00 +27°C° 0 mm 2 m/s 709 mmHg 74%
    10:00 +28°C° 0 mm 3 m/s 709 mmHg 67%
    11:00 +29°C° 0 mm 3 m/s 708 mmHg 61%
    12:00 +30°C° 0 mm 2 m/s 708 mmHg 56%
    13:00 +31°C° 0 mm 2 m/s 707 mmHg 51%
    14:00 +32°C° 0 mm 2 m/s 706 mmHg 50%
    15:00 +32°C° 0 mm 2 m/s 706 mmHg 49%
    16:00 +32°C° 0 mm 1 m/s 705 mmHg 48%
    17:00 +30°C° 0 mm 1 m/s 705 mmHg 52%
    18:00 +29°C° 0 mm 1 m/s 705 mmHg 57%
    19:00 +28°C° 0 mm 1 m/s 705 mmHg 62%
    20:00 +27°C° 0 mm 1 m/s 706 mmHg 64%
    21:00 +26°C° 0 mm 1 m/s 706 mmHg 67%
    22:00 +26°C° 0 mm 2 m/s 706 mmHg 69%
    23:00 +25°C° 0 mm 1 m/s 706 mmHg 73%
    Voir plus